Hourly Weather Juazeirinho

Today, 26 November, Thursday

Time Temperature Precipitation Wind Pressure Humidity
00:00 +29°C° 0 mm 5 mps 739 mmHg 56%
01:00 +28°C° 0 mm 5 mps 739 mmHg 57%
02:00 +28°C° 0 mm 4 mps 739 mmHg 58%
03:00 +27°C° 0 mm 4 mps 738 mmHg 60%
04:00 +27°C° 0 mm 4 mps 739 mmHg 60%
05:00 +27°C° 0 mm 4 mps 739 mmHg 61%
06:00 +27°C° 0 mm 4 mps 739 mmHg 62%
07:00 +28°C° 0 mm 4 mps 740 mmHg 55%
08:00 +30°C° 0 mm 4 mps 740 mmHg 48%
09:00 +33°C° 0 mm 4 mps 740 mmHg 42%
10:00 +35°C° 0 mm 4 mps 739 mmHg 37%
11:00 +36°C° 0 mm 4 mps 739 mmHg 33%
12:00 +38°C° 0 mm 4 mps 738 mmHg 28%
13:00 +38°C° 0 mm 4 mps 737 mmHg 28%
14:00 +38°C° 0 mm 4 mps 737 mmHg 28%
15:00 +39°C° 0 mm 5 mps 736 mmHg 27%
16:00 +38°C° 0 mm 4 mps 736 mmHg 29%
17:00 +37°C° 0 mm 4 mps 737 mmHg 31%
18:00 +36°C° 0 mm 3 mps 737 mmHg 32%
19:00 +35°C° 0 mm 4 mps 738 mmHg 36%
20:00 +34°C° 0 mm 4 mps 738 mmHg 39%
21:00 +33°C° 0 mm 5 mps 739 mmHg 42%
22:00 +32°C° 0 mm 5 mps 739 mmHg 48%
23:00 +30°C° 0 mm 5 mps 739 mmHg 53%

Tomorrow, 27 November, Friday

Time Temperature Precipitation Wind Pressure Humidity
00:00 +28°C° 0 mm 5 mps 739 mmHg 59%
01:00 +28°C° 0 mm 4 mps 739 mmHg 60%
02:00 +27°C° 0 mm 4 mps 738 mmHg 62%
03:00 +26°C° 0 mm 3 mps 738 mmHg 64%
04:00 +26°C° 0 mm 3 mps 739 mmHg 65%
05:00 +26°C° 0 mm 3 mps 739 mmHg 65%
06:00 +26°C° 0 mm 3 mps 739 mmHg 66%
07:00 +28°C° 0 mm 3 mps 740 mmHg 58%
08:00 +30°C° 0 mm 3 mps 740 mmHg 51%
09:00 +33°C° 0 mm 3 mps 740 mmHg 43%
10:00 +35°C° 0 mm 3 mps 740 mmHg 37%
11:00 +37°C° 0 mm 3 mps 739 mmHg 31%
12:00 +38°C° 0 mm 3 mps 738 mmHg 25%
13:00 +39°C° 0 mm 3 mps 738 mmHg 23%
14:00 +40°C° 0 mm 3 mps 737 mmHg 20%
15:00 +40°C° 0 mm 3 mps 736 mmHg 17%
16:00 +39°C° 0 mm 3 mps 736 mmHg 19%
17:00 +38°C° 0 mm 2 mps 737 mmHg 20%
18:00 +37°C° 0 mm 2 mps 737 mmHg 21%
19:00 +35°C° 0 mm 4 mps 737 mmHg 28%
20:00 +34°C° 0 mm 5 mps 738 mmHg 35%
21:00 +33°C° 0 mm 6 mps 739 mmHg 43%
22:00 +32°C° 0 mm 6 mps 739 mmHg 48%
23:00 +29°C° 0 mm 5 mps 739 mmHg 53%

Day after tomorrow, 28 November, Saturday

Time Temperature Precipitation Wind Pressure Humidity
00:00 +28°C° 0 mm 5 mps 739 mmHg 58%
01:00 +28°C° 0 mm 4 mps 739 mmHg 60%
02:00 +27°C° 0 mm 4 mps 739 mmHg 62%
03:00 +27°C° 0 mm 3 mps 738 mmHg 64%
04:00 +26°C° 0 mm 3 mps 739 mmHg 64%
05:00 +26°C° 0 mm 3 mps 739 mmHg 64%
06:00 +26°C° 0 mm 3 mps 740 mmHg 64%
07:00 +28°C° 0 mm 3 mps 740 mmHg 55%
08:00 +30°C° 0 mm 3 mps 740 mmHg 47%
09:00 +33°C° 0 mm 3 mps 740 mmHg 38%
10:00 +35°C° 0 mm 3 mps 740 mmHg 33%
11:00 +37°C° 0 mm 3 mps 739 mmHg 28%
12:00 +39°C° 0 mm 3 mps 738 mmHg 23%
13:00 +40°C° 0 mm 4 mps 738 mmHg 22%
14:00 +41°C° 0 mm 4 mps 737 mmHg 21%
15:00 +41°C° 0 mm 4 mps 736 mmHg 20%
16:00 +40°C° 0 mm 4 mps 737 mmHg 22%
17:00 +38°C° 0 mm 4 mps 737 mmHg 24%
18:00 +37°C° 0 mm 4 mps 737 mmHg 26%
19:00 +35°C° 0 mm 4 mps 738 mmHg 32%
20:00 +34°C° 0 mm 5 mps 738 mmHg 38%
21:00 +33°C° 0 mm 6 mps 739 mmHg 44%
22:00 +30°C° 0 mm 5 mps 739 mmHg 48%
23:00 +29°C° 0 mm 5 mps 739 mmHg 53%

29 November, Sunday

Time Temperature Precipitation Wind Pressure Humidity
00:00 +28°C° 0 mm 5 mps 739 mmHg 58%
01:00 +28°C° 0 mm 4 mps 739 mmHg 57%
02:00 +27°C° 0 mm 4 mps 739 mmHg 57%
03:00 +27°C° 0 mm 3 mps 739 mmHg 57%
04:00 +26°C° 0 mm 3 mps 739 mmHg 59%
05:00 +26°C° 0 mm 3 mps 739 mmHg 61%
06:00 +26°C° 0 mm 3 mps 740 mmHg 63%
07:00 +28°C° 0 mm 3 mps 740 mmHg 56%
08:00 +30°C° 0 mm 3 mps 740 mmHg 48%
09:00 +31°C° 0 mm 3 mps 740 mmHg 40%
10:00 +34°C° 0 mm 3 mps 740 mmHg 35%
11:00 +36°C° 0 mm 3 mps 739 mmHg 29%
12:00 +38°C° 0 mm 3 mps 738 mmHg 23%
13:00 +39°C° 0 mm 3 mps 737 mmHg 20%
14:00 +39°C° 0 mm 3 mps 737 mmHg 18%
15:00 +40°C° 0 mm 3 mps 736 mmHg 16%
16:00 +39°C° 0 mm 3 mps 736 mmHg 17%
17:00 +37°C° 0 mm 3 mps 736 mmHg 17%
18:00 +36°C° 0 mm 2 mps 737 mmHg 18%
19:00 +35°C° 0 mm 3 mps 737 mmHg 26%
20:00 +33°C° 0 mm 3 mps 738 mmHg 34%
21:00 +32°C° 0 mm 4 mps 739 mmHg 41%
22:00 +30°C° 0.1 mm 4 mps 739 mmHg 47%
23:00 +29°C° 0.1 mm 4 mps 739 mmHg 54%

30 November, Monday

Time Temperature Precipitation Wind Pressure Humidity
00:00 +28°C° 0.1 mm 4 mps 739 mmHg 60%
01:00 +28°C° 0 mm 3 mps 739 mmHg 60%
02:00 +27°C° 0 mm 3 mps 739 mmHg 60%
03:00 +26°C° 0 mm 2 mps 739 mmHg 61%
04:00 +26°C° 0 mm 2 mps 739 mmHg 58%
05:00 +26°C° 0 mm 2 mps 739 mmHg 56%
06:00 +26°C° 0 mm 2 mps 739 mmHg 54%
07:00 +28°C° 0 mm 2 mps 740 mmHg 47%
08:00 +30°C° 0 mm 2 mps 740 mmHg 40%
09:00 +34°C° 0 mm 3 mps 740 mmHg 34%
10:00 +35°C° 0 mm 2 mps 739 mmHg 29%
11:00 +37°C° 0 mm 2 mps 738 mmHg 25%
12:00 +39°C° 0 mm 2 mps 738 mmHg 21%
13:00 +39°C° 0 mm 2 mps 737 mmHg 19%
14:00 +40°C° 0 mm 2 mps 736 mmHg 17%
15:00 +41°C° 0 mm 2 mps 735 mmHg 16%
16:00 +39°C° 0 mm 2 mps 736 mmHg 17%
17:00 +38°C° 0 mm 2 mps 736 mmHg 19%
18:00 +36°C° 0 mm 2 mps 736 mmHg 20%
19:00 +35°C° 0 mm 3 mps 737 mmHg 28%
20:00 +34°C° 0 mm 4 mps 737 mmHg 36%
21:00 +33°C° 0 mm 4 mps 738 mmHg 45%
22:00 +32°C° 0.1 mm 4 mps 738 mmHg 50%
23:00 +30°C° 0.1 mm 4 mps 739 mmHg 55%

1 December, Tuesday

Time Temperature Precipitation Wind Pressure Humidity
00:00 +29°C° 0.1 mm 5 mps 739 mmHg 60%
01:00 +28°C° 0 mm 4 mps 739 mmHg 61%
02:00 +28°C° 0 mm 4 mps 738 mmHg 63%
03:00 +28°C° 0 mm 4 mps 738 mmHg 65%
04:00 +27°C° 0 mm 4 mps 738 mmHg 64%
05:00 +27°C° 0 mm 4 mps 739 mmHg 63%
06:00 +27°C° 0 mm 4 mps 739 mmHg 62%
07:00 +29°C° 0 mm 4 mps 739 mmHg 55%
08:00 +31°C° 0 mm 3 mps 739 mmHg 49%
09:00 +34°C° 0 mm 3 mps 740 mmHg 42%
10:00 +35°C° 0 mm 3 mps 739 mmHg 38%
11:00 +37°C° 0 mm 3 mps 739 mmHg 33%
12:00 +39°C° 0 mm 3 mps 738 mmHg 29%
13:00 +39°C° 0 mm 2 mps 737 mmHg 27%
14:00 +39°C° 0 mm 2 mps 737 mmHg 26%
15:00 +39°C° 0 mm 2 mps 736 mmHg 24%
16:00 +39°C° 0 mm 2 mps 736 mmHg 25%
17:00 +38°C° 0 mm 2 mps 737 mmHg 27%
18:00 +36°C° 0 mm 1 mps 737 mmHg 28%
19:00 +35°C° 0.3 mm 3 mps 738 mmHg 37%
20:00 +34°C° 0.3 mm 5 mps 738 mmHg 45%
21:00 +32°C° 0.3 mm 6 mps 739 mmHg 54%
22:00 +30°C° 0.7 mm 6 mps 739 mmHg 58%
23:00 +29°C° 0.7 mm 6 mps 739 mmHg 61%
Show more